Погода в Красном Саде

Россия / Ростовская область     47°05′54″N   39°43′44″E
темп.,
°C
ветер,
м/с
пор.,
м/с
влажн.,
%
обл.,
%
осадки,
мм/ч
давл.,
гПа
погр.,
м
7 мая, пт
пт700:00+13ю238418 0.0 101229
03:00+12з348189 0.0 101258
06:00+11зюз3677100 0.0 1013119
09:00+16зюз4665100 0.0 1014570
12:00+19з56545 0.0 10151349
15:00+20з56515 0.0 10161714
18:00+18зсз45645 0.0 1016536
21:00+13з22839 0.0 101718
8 мая, сб
сб800:00+12юв1188100 0.0 101710
03:00+12юв338576 0.0 101660
06:00+12ююв3677100 0.0 1016121
09:00+17ююв4671100 0.0 1015470
12:00+21ю5755100 0.0 10141339
15:00+22ююз6752100 0.0 10121466
18:00+20зюз346320 0.0 1011307
21:00+16сз117431 0.0 101111
9 мая, вс
вс900:00+14сз3380100 0.3 101041
03:00+12ссз61093100 1.8 1010497
06:00+9ссз81394100 5.2 1011726
09:00+8ссз91391100 12.9 1014813
12:00+8ссз61091100 3.6 10161053
15:00+11ссз71072100 4.3 10181444
18:00+11с4972100 0.9 1020715
21:00+8зсз337964 1.1 102229
10 мая, пн
пн1000:00+6сз4108188 0.1 1022172
03:00+6сз41083100 0.1 1022229
06:00+7сз51182100 0.0 1022452
09:00+9сз71072100 0.1 10211107
12:00+7сз71291100 4.8 10191091
15:00+7сз71092100 8.3 10171108
18:00+7зсз51093100 0.3 1016545
21:00+8зсз51097100 4.2 1014476
11 мая, вт
вт1100:00+8с2598100 0.4 1014217
03:00+7с2397100 0.9 1014135
06:00+8з1398100 2.9 1014128
09:00+8всв5897100 4.1 1013443
12:00+11св6977100 0.1 10151195
15:00+12ссв697348 0.2 10161240
18:00+9всв71084100 0.6 1019918
21:00+8св71289100 0.7 1020676